Time[GMT],chlorophyll[micrograms/liter](3m),turbidity[ntus](3m)
2008-10-01 15:00,5.76,0.39
2008-10-01 16:00,5.53,0.40
2008-10-01 17:00,4.65,0.39
2008-10-01 18:00,7.30,0.39
2008-10-01 19:00,7.93,0.38
2008-10-01 20:00,6.16,0.37
2008-10-01 21:00,8.13,0.38
2008-10-01 22:00,7.81,0.38
2008-10-01 23:00,7.44,0.38
2008-10-02 00:00,7.47,0.37
2008-10-02 01:00,7.27,0.37
2008-10-02 02:00,7.10,0.36
2008-10-02 03:00,7.04,0.36
2008-10-02 04:00,6.79,0.36
2008-10-02 05:00,6.44,0.36
2008-10-02 06:00,6.27,0.36
2008-10-02 07:00,6.81,0.35
2008-10-02 08:00,7.16,0.35
2008-10-02 09:00,7.56,0.40
2008-10-02 10:00,8.41,0.42
2008-10-02 11:00,6.87,0.41
2008-10-02 12:00,7.13,0.40
2008-10-02 13:00,8.50,0.42
2008-10-02 14:00,8.24,0.40
2008-10-02 15:00,4.85,0.37
2008-10-02 16:00,4.88,0.39
2008-10-02 17:00,5.05,0.39
2008-10-02 18:00,,
2008-10-02 19:00,,
2008-10-02 20:00,6.22,0.38
2008-10-02 21:00,,
2008-10-02 22:00,6.79,0.39
2008-10-02 23:00,6.39,0.38
2008-10-03 00:00,5.79,0.36
2008-10-03 01:00,5.10,0.34
2008-10-03 02:00,5.90,0.32
2008-10-03 03:00,6.50,0.39
2008-10-03 04:00,6.16,0.40
2008-10-03 05:00,5.96,0.39
2008-10-03 06:00,6.10,0.40
2008-10-03 07:00,5.96,0.40
2008-10-03 08:00,5.87,0.40
2008-10-03 09:00,5.67,0.40
2008-10-03 10:00,5.70,0.38
2008-10-03 11:00,5.39,0.35
2008-10-03 12:00,4.85,0.33
2008-10-03 13:00,4.65,0.33
2008-10-03 14:00,,
2008-10-03 15:00,3.05,0.33
2008-10-03 16:00,4.62,0.35
2008-10-03 17:00,4.36,0.35
2008-10-03 18:00,4.36,0.38
2008-10-03 19:00,4.36,0.38
2008-10-03 20:00,4.16,0.36
2008-10-03 21:00,4.13,0.36
2008-10-03 22:00,3.56,0.37
2008-10-03 23:00,3.39,0.36
2008-10-04 00:00,3.17,0.36
2008-10-04 01:00,2.94,0.36
2008-10-04 02:00,3.74,0.32
2008-10-04 03:00,4.05,0.32
2008-10-04 04:00,4.05,0.31
2008-10-04 05:00,3.99,0.31
2008-10-04 06:00,3.99,0.31
2008-10-04 07:00,4.16,0.31
2008-10-04 08:00,3.88,0.32
2008-10-04 09:00,3.45,0.34
2008-10-04 10:00,3.82,0.33
2008-10-04 11:00,2.79,0.34
2008-10-04 12:00,2.51,0.41
2008-10-04 13:00,1.97,0.42
2008-10-04 14:00,1.74,0.40
2008-10-04 15:00,1.63,0.36
2008-10-04 16:00,2.14,0.31
2008-10-04 17:00,2.37,0.32
2008-10-04 18:00,2.62,0.33
2008-10-04 19:00,2.85,0.33
2008-10-04 20:00,3.62,0.32
2008-10-04 21:00,5.25,0.32
2008-10-04 22:00,5.19,0.33
2008-10-04 23:00,3.99,0.39
2008-10-05 00:00,3.93,0.39
2008-10-05 01:00,4.19,0.36
2008-10-05 02:00,4.53,0.35
2008-10-05 03:00,4.22,0.37
2008-10-05 04:00,4.82,0.35
2008-10-05 05:00,5.33,0.31
2008-10-05 06:00,5.25,0.31
2008-10-05 07:00,5.16,0.30
2008-10-05 08:00,5.10,0.33
2008-10-05 09:00,4.05,0.37
2008-10-05 10:00,4.02,0.36
2008-10-05 11:00,4.16,0.35
2008-10-05 12:00,4.31,0.36
2008-10-05 13:00,4.96,0.36
2008-10-05 14:00,6.47,0.34
2008-10-05 15:00,6.50,0.31
2008-10-05 16:00,7.47,0.33
2008-10-05 17:00,8.70,0.34
2008-10-05 18:00,8.95,0.33
2008-10-05 19:00,8.78,0.33
2008-10-05 20:00,9.47,0.34
2008-10-05 21:00,9.58,0.34
2008-10-05 22:00,5.99,0.46
2008-10-05 23:00,6.36,0.50
2008-10-06 00:00,6.16,0.51
2008-10-06 01:00,5.73,0.49
2008-10-06 02:00,6.93,0.56
2008-10-06 03:00,8.33,0.58
2008-10-06 04:00,7.19,0.37
2008-10-06 05:00,6.27,0.34
2008-10-06 06:00,6.05,0.30
2008-10-06 07:00,5.02,0.30
2008-10-06 08:00,5.08,0.30
2008-10-06 09:00,4.96,0.30
2008-10-06 10:00,5.30,0.30
2008-10-06 11:00,4.99,0.31
2008-10-06 12:00,5.10,0.30
2008-10-06 13:00,5.47,0.31
2008-10-06 14:00,4.16,0.30
2008-10-06 15:00,4.33,0.30
2008-10-06 16:00,,
2008-10-06 17:00,4.28,0.27
2008-10-06 18:00,4.42,0.27
2008-10-06 19:00,6.42,0.28
2008-10-06 20:00,,
2008-10-06 21:00,7.81,0.31
2008-10-06 22:00,8.24,0.34
2008-10-06 23:00,9.07,0.47
2008-10-07 00:00,8.58,0.56
2008-10-07 01:00,8.53,0.55
2008-10-07 02:00,7.98,0.46
2008-10-07 03:00,7.98,0.34
2008-10-07 04:00,6.13,0.30
2008-10-07 05:00,5.67,0.30
2008-10-07 06:00,5.45,0.28
2008-10-07 07:00,5.19,0.27
2008-10-07 08:00,5.02,0.26
2008-10-07 09:00,4.96,0.27
2008-10-07 10:00,4.93,0.27
2008-10-07 11:00,4.88,0.27
2008-10-07 12:00,4.48,0.28
2008-10-07 13:00,3.56,0.28
2008-10-07 14:00,,
2008-10-07 15:00,,
2008-10-07 16:00,,
2008-10-07 17:00,,
2008-10-07 18:00,,
2008-10-07 19:00,,
2008-10-07 20:00,,
2008-10-07 21:00,,
2008-10-07 22:00,5.30,0.24
2008-10-07 23:00,5.56,0.24
2008-10-08 00:00,5.56,0.24
2008-10-08 01:00,5.53,0.25
2008-10-08 02:00,5.67,0.25
2008-10-08 03:00,5.47,0.25
2008-10-08 04:00,5.39,0.25
2008-10-08 05:00,5.50,0.25
2008-10-08 06:00,5.73,0.25
2008-10-08 07:00,5.36,0.25
2008-10-08 08:00,5.33,0.25
2008-10-08 09:00,5.16,0.25
2008-10-08 10:00,4.93,0.25
2008-10-08 11:00,4.33,0.24
2008-10-08 12:00,3.91,0.24
2008-10-08 13:00,2.88,0.24
2008-10-08 14:00,,
2008-10-08 15:00,2.22,0.24
2008-10-08 16:00,,
2008-10-08 17:00,,
2008-10-08 18:00,,
2008-10-08 19:00,,
2008-10-08 20:00,,
2008-10-08 21:00,11.72,0.43
2008-10-08 22:00,14.06,0.51
2008-10-08 23:00,18.16,0.60
2008-10-09 00:00,13.94,0.55
2008-10-09 01:00,11.12,0.46
2008-10-09 02:00,9.07,0.39
2008-10-09 03:00,8.67,0.37
2008-10-09 04:00,8.55,0.36
2008-10-09 05:00,8.21,0.35
2008-10-09 06:00,7.67,0.34
2008-10-09 07:00,8.01,0.35
2008-10-09 08:00,8.55,0.36
2008-10-09 09:00,8.84,0.37
2008-10-09 10:00,10.35,0.45
2008-10-09 11:00,11.21,0.46
2008-10-09 12:00,9.92,0.45
2008-10-09 13:00,8.67,0.42
2008-10-09 14:00,7.39,0.40
2008-10-09 15:00,7.21,0.37
2008-10-09 16:00,,
2008-10-09 17:00,,
2008-10-09 18:00,,
2008-10-09 19:00,,
2008-10-09 20:00,,
2008-10-09 21:00,5.76,0.28
2008-10-09 22:00,6.99,0.30
2008-10-09 23:00,8.27,0.33
2008-10-10 00:00,8.73,0.34
2008-10-10 01:00,7.50,0.31
2008-10-10 02:00,7.33,0.31
2008-10-10 03:00,6.76,0.30
2008-10-10 04:00,6.53,0.29
2008-10-10 05:00,6.33,0.29
2008-10-10 06:00,6.22,0.29
2008-10-10 07:00,7.04,0.31
2008-10-10 08:00,7.01,0.32
2008-10-10 09:00,7.30,0.32
2008-10-10 10:00,8.67,0.36
2008-10-10 11:00,8.67,0.37
2008-10-10 12:00,7.44,0.35
2008-10-10 13:00,4.39,0.30
2008-10-10 14:00,,
2008-10-10 15:00,,
2008-10-10 16:00,,
2008-10-10 17:00,,
2008-10-10 18:00,,
2008-10-10 19:00,,
2008-10-10 20:00,,
2008-10-10 21:00,11.75,0.46
2008-10-10 22:00,12.77,0.46
2008-10-10 23:00,13.12,0.50
2008-10-11 00:00,13.37,0.48
2008-10-11 01:00,12.32,0.45
2008-10-11 02:00,9.04,0.36
2008-10-11 03:00,9.81,0.38
2008-10-11 04:00,7.36,0.32
2008-10-11 05:00,5.87,0.29
2008-10-11 06:00,5.82,0.29
2008-10-11 07:00,5.76,0.29
2008-10-11 08:00,5.65,0.29
2008-10-11 09:00,7.21,0.32
2008-10-11 10:00,13.12,0.48
2008-10-11 11:00,11.35,0.46
2008-10-11 12:00,9.18,0.44
2008-10-11 13:00,6.76,0.43
2008-10-11 14:00,,
2008-10-11 15:00,,
2008-10-11 16:00,,
2008-10-11 17:00,,
2008-10-11 18:00,,
2008-10-11 19:00,,
2008-10-11 20:00,,
2008-10-11 21:00,7.39,0.39
2008-10-11 22:00,8.16,0.38
2008-10-11 23:00,7.93,0.37
2008-10-12 00:00,9.58,0.42
2008-10-12 01:00,9.75,0.43
2008-10-12 02:00,10.27,0.46
2008-10-12 03:00,10.35,0.46
2008-10-12 04:00,10.35,0.48
2008-10-12 05:00,9.67,0.50
2008-10-12 06:00,9.72,0.49
2008-10-12 07:00,10.15,0.49
2008-10-12 08:00,10.15,0.49
2008-10-12 09:00,9.67,0.46
2008-10-12 10:00,8.87,0.42
2008-10-12 11:00,8.58,0.42
2008-10-12 12:00,7.41,0.42
2008-10-12 13:00,5.16,0.41
2008-10-12 14:00,4.56,0.40
2008-10-12 15:00,,
2008-10-12 16:00,4.31,0.48
2008-10-12 17:00,,
2008-10-12 18:00,,
2008-10-12 19:00,,
2008-10-12 20:00,,
2008-10-12 21:00,,
2008-10-12 22:00,10.24,0.49
2008-10-12 23:00,9.98,0.49
2008-10-13 00:00,10.09,0.49
2008-10-13 01:00,9.64,0.48
2008-10-13 02:00,9.55,0.48
2008-10-13 03:00,9.52,0.48
2008-10-13 04:00,10.21,0.51
2008-10-13 05:00,10.12,0.49
2008-10-13 06:00,9.07,0.45
2008-10-13 07:00,8.64,0.43
2008-10-13 08:00,8.70,0.43
2008-10-13 09:00,8.44,0.41
2008-10-13 10:00,8.67,0.41
2008-10-13 11:00,8.21,0.42
2008-10-13 12:00,6.96,0.42
2008-10-13 13:00,6.05,0.43
2008-10-13 14:00,4.82,0.43
2008-10-13 15:00,6.39,0.43
2008-10-13 16:00,,
2008-10-13 17:00,6.16,0.42
2008-10-13 18:00,,
2008-10-13 19:00,6.22,0.36
2008-10-13 20:00,6.90,0.37
2008-10-13 21:00,7.13,0.36
2008-10-13 22:00,7.78,0.37
2008-10-13 23:00,7.78,0.36
2008-10-14 00:00,7.73,0.37
2008-10-14 01:00,7.64,0.37
2008-10-14 02:00,7.70,0.36
2008-10-14 03:00,7.58,0.37
2008-10-14 04:00,7.41,0.37
2008-10-14 05:00,7.10,0.37
2008-10-14 06:00,6.84,0.37
2008-10-14 07:00,6.84,0.37
2008-10-14 08:00,6.24,0.35
2008-10-14 09:00,6.67,0.36
2008-10-14 10:00,6.16,0.34
2008-10-14 11:00,6.27,0.35
2008-10-14 12:00,5.99,0.34
2008-10-14 13:00,4.62,0.34
2008-10-14 14:00,3.39,0.34
2008-10-14 15:00,2.99,0.34
2008-10-14 16:00,2.91,0.34
2008-10-14 17:00,,
2008-10-14 18:00,,
2008-10-14 19:00,,
2008-10-14 20:00,6.05,0.36
2008-10-14 21:00,7.04,0.38
2008-10-14 22:00,7.64,0.38
2008-10-14 23:00,7.50,0.39
2008-10-15 00:00,7.39,0.39
2008-10-15 01:00,7.27,0.38
2008-10-15 02:00,7.16,0.38
2008-10-15 03:00,7.01,0.37
2008-10-15 04:00,6.99,0.37
2008-10-15 05:00,6.99,0.37
2008-10-15 06:00,7.41,0.39
2008-10-15 07:00,7.76,0.40
2008-10-15 08:00,7.96,0.41
2008-10-15 09:00,8.13,0.42
2008-10-15 10:00,8.07,0.41
2008-10-15 11:00,7.87,0.41
2008-10-15 12:00,6.47,0.39
2008-10-15 13:00,4.42,0.37
2008-10-15 14:00,3.85,0.36
2008-10-15 15:00,,
2008-10-15 16:00,,
2008-10-15 17:00,,
2008-10-15 18:00,,
2008-10-15 19:00,,
2008-10-15 20:00,,
2008-10-15 21:00,6.64,0.36
2008-10-15 22:00,6.96,0.36
2008-10-15 23:00,7.73,0.38
2008-10-16 00:00,7.70,0.38
2008-10-16 01:00,7.81,0.38
2008-10-16 02:00,7.61,0.38
2008-10-16 03:00,7.61,0.38
2008-10-16 04:00,7.30,0.37
2008-10-16 05:00,7.44,0.38
2008-10-16 06:00,7.10,0.38
2008-10-16 07:00,7.01,0.38
2008-10-16 08:00,6.99,0.38
2008-10-16 09:00,7.04,0.39
2008-10-16 10:00,6.96,0.38
2008-10-16 11:00,7.41,0.38
2008-10-16 12:00,6.79,0.38
2008-10-16 13:00,7.07,0.38
2008-10-16 14:00,6.07,0.38
2008-10-16 15:00,5.47,0.37
2008-10-16 16:00,3.93,0.36
2008-10-16 17:00,6.27,0.37
2008-10-16 18:00,5.85,0.36
2008-10-16 19:00,6.70,0.36
2008-10-16 20:00,7.01,0.36
2008-10-16 21:00,7.19,0.37
2008-10-16 22:00,7.07,0.36
2008-10-16 23:00,7.21,0.35
2008-10-17 00:00,6.84,0.36
2008-10-17 01:00,6.76,0.36
2008-10-17 02:00,6.76,0.37
2008-10-17 03:00,6.87,0.37
2008-10-17 04:00,6.84,0.38
2008-10-17 05:00,6.64,0.37
2008-10-17 06:00,6.79,0.37
2008-10-17 07:00,6.53,0.37
2008-10-17 08:00,6.33,0.36
2008-10-17 09:00,6.22,0.36
2008-10-17 10:00,6.27,0.36
2008-10-17 11:00,6.07,0.35
2008-10-17 12:00,5.79,0.35
2008-10-17 13:00,5.42,0.35
2008-10-17 14:00,3.88,0.34
2008-10-17 15:00,3.54,0.34
2008-10-17 16:00,3.34,0.34
2008-10-17 17:00,3.56,0.34
2008-10-17 18:00,3.42,0.34
2008-10-17 19:00,4.39,0.34
2008-10-17 20:00,4.68,0.34
2008-10-17 21:00,6.81,0.34
2008-10-17 22:00,7.01,0.34
2008-10-17 23:00,7.33,0.33
2008-10-18 00:00,7.21,0.33
2008-10-18 01:00,7.07,0.33
2008-10-18 02:00,6.87,0.33
2008-10-18 03:00,6.76,0.33
2008-10-18 04:00,6.42,0.33
2008-10-18 05:00,6.33,0.33
2008-10-18 06:00,6.16,0.33
2008-10-18 07:00,6.24,0.33
2008-10-18 08:00,6.47,0.33
2008-10-18 09:00,6.56,0.33
2008-10-18 10:00,6.50,0.33
2008-10-18 11:00,6.81,0.33
2008-10-18 12:00,6.56,0.33
2008-10-18 13:00,6.50,0.33
2008-10-18 14:00,5.99,0.33
2008-10-18 15:00,6.62,0.33
2008-10-18 16:00,5.33,0.33
2008-10-18 17:00,6.64,0.33
2008-10-18 18:00,5.16,0.33
2008-10-18 19:00,5.96,0.33
2008-10-18 20:00,7.53,0.34
2008-10-18 21:00,9.58,0.35
2008-10-18 22:00,9.12,0.35
2008-10-18 23:00,9.35,0.36
2008-10-19 00:00,9.27,0.36
2008-10-19 01:00,9.41,0.36
2008-10-19 02:00,8.61,0.35
2008-10-19 03:00,8.24,0.35
2008-10-19 04:00,8.07,0.34
2008-10-19 05:00,7.78,0.34
2008-10-19 06:00,7.67,0.34
2008-10-19 07:00,7.33,0.34
2008-10-19 08:00,7.10,0.34
2008-10-19 09:00,6.99,0.33
2008-10-19 10:00,6.70,0.33
2008-10-19 11:00,6.42,0.33
2008-10-19 12:00,6.33,0.33
2008-10-19 13:00,5.67,0.33
2008-10-19 14:00,6.73,0.33
2008-10-19 15:00,6.24,0.34
2008-10-19 16:00,6.36,0.34
2008-10-19 17:00,5.62,0.34
2008-10-19 18:00,6.87,0.33
2008-10-19 19:00,5.65,0.33
2008-10-19 20:00,7.47,0.33
2008-10-19 21:00,7.01,0.33
2008-10-19 22:00,6.59,0.33
2008-10-19 23:00,6.22,0.33
2008-10-20 00:00,6.07,0.33
2008-10-20 01:00,6.30,0.34
2008-10-20 02:00,7.10,0.34
2008-10-20 03:00,8.21,0.35
2008-10-20 04:00,8.13,0.36
2008-10-20 05:00,8.13,0.36
2008-10-20 06:00,7.98,0.35
2008-10-20 07:00,7.76,0.35
2008-10-20 08:00,7.33,0.34
2008-10-20 09:00,6.99,0.33
2008-10-20 10:00,6.93,0.34
2008-10-20 11:00,6.79,0.34
2008-10-20 12:00,7.24,0.34
2008-10-20 13:00,7.78,0.34
2008-10-20 14:00,5.59,0.34
2008-10-20 15:00,3.85,0.32
2008-10-20 16:00,3.79,0.31
2008-10-20 17:00,4.73,0.32
2008-10-20 18:00,4.19,0.32
2008-10-20 19:00,4.36,0.31
2008-10-20 20:00,5.65,0.31
2008-10-20 21:00,6.90,0.32
2008-10-20 22:00,6.76,0.33
2008-10-20 23:00,6.81,0.33
2008-10-21 00:00,8.07,0.35
2008-10-21 01:00,7.76,0.35
2008-10-21 02:00,7.58,0.35
2008-10-21 03:00,7.64,0.35
2008-10-21 04:00,7.01,0.34
2008-10-21 05:00,6.50,0.33
2008-10-21 06:00,6.10,0.33
2008-10-21 07:00,6.19,0.33
2008-10-21 08:00,6.16,0.33
2008-10-21 09:00,6.16,0.34
2008-10-21 10:00,5.99,0.34
2008-10-21 11:00,5.87,0.34
2008-10-21 12:00,6.59,0.35
2008-10-21 13:00,5.25,0.35
2008-10-21 14:00,4.42,0.36
2008-10-21 15:00,5.79,0.38
2008-10-21 16:00,5.67,0.39
2008-10-21 17:00,5.90,0.38
2008-10-21 18:00,6.30,0.36
2008-10-21 19:00,5.73,0.35
2008-10-21 20:00,5.76,0.34
2008-10-21 21:00,6.07,0.34
2008-10-21 22:00,5.99,0.34
2008-10-21 23:00,5.65,0.32
2008-10-22 00:00,5.19,0.31
2008-10-22 01:00,4.42,0.30
2008-10-22 02:00,4.76,0.31
2008-10-22 03:00,5.30,0.33
2008-10-22 04:00,8.38,0.44
2008-10-22 05:00,6.93,0.40
2008-10-22 06:00,6.10,0.37
2008-10-22 07:00,3.88,0.30
2008-10-22 08:00,3.93,0.30
2008-10-22 09:00,4.51,0.31
2008-10-22 10:00,5.85,0.37
2008-10-22 11:00,6.33,0.42
2008-10-22 12:00,5.82,0.41
2008-10-22 13:00,5.25,0.41
2008-10-22 14:00,4.93,0.39
2008-10-22 15:00,4.65,0.38
2008-10-22 16:00,4.90,0.39
2008-10-22 17:00,4.93,0.41
2008-10-22 18:00,4.33,0.41
2008-10-22 19:00,3.19,0.33
2008-10-22 20:00,3.14,0.27
2008-10-22 21:00,3.14,0.26
2008-10-22 22:00,3.19,0.25
2008-10-22 23:00,2.77,0.33
2008-10-23 00:00,2.51,0.44
2008-10-23 01:00,2.71,0.36
2008-10-23 02:00,2.94,0.44
2008-10-23 03:00,2.91,0.47
2008-10-23 04:00,2.97,0.52
2008-10-23 05:00,2.94,0.62
2008-10-23 06:00,2.97,0.63
2008-10-23 07:00,2.94,0.64
2008-10-23 08:00,2.85,0.66
2008-10-23 09:00,2.79,0.64
2008-10-23 10:00,2.79,0.65
2008-10-23 11:00,2.88,0.59
2008-10-23 12:00,2.97,0.65
2008-10-23 13:00,2.48,0.61
2008-10-23 14:00,2.48,0.62
2008-10-23 15:00,3.08,0.65
2008-10-23 16:00,2.31,0.74
2008-10-23 17:00,2.42,0.75
2008-10-23 18:00,2.68,0.84
2008-10-23 19:00,2.91,0.83
2008-10-23 20:00,3.45,0.75
2008-10-23 21:00,3.36,0.67
2008-10-23 22:00,3.25,0.72
2008-10-23 23:00,3.19,0.71
2008-10-24 00:00,3.22,0.67
2008-10-24 01:00,3.51,0.56
2008-10-24 02:00,3.42,0.59
2008-10-24 03:00,3.25,0.59
2008-10-24 04:00,3.11,0.59
2008-10-24 05:00,3.05,0.57
2008-10-24 06:00,2.85,0.54
2008-10-24 07:00,2.88,0.54
2008-10-24 08:00,2.85,0.54
2008-10-24 09:00,2.82,0.53
2008-10-24 10:00,2.79,0.52
2008-10-24 11:00,2.71,0.50
2008-10-24 12:00,2.82,0.40
2008-10-24 13:00,2.11,0.36
2008-10-24 14:00,1.77,0.33
2008-10-24 15:00,1.88,0.32
2008-10-24 16:00,2.00,0.37
2008-10-24 17:00,2.14,0.39
2008-10-24 18:00,2.54,0.41
2008-10-24 19:00,2.71,0.40
2008-10-24 20:00,3.51,0.40
2008-10-24 21:00,4.16,0.40
2008-10-24 22:00,3.96,0.40
2008-10-24 23:00,3.91,0.38
2008-10-25 00:00,3.76,0.38
2008-10-25 01:00,3.51,0.35
2008-10-25 02:00,3.51,0.34
2008-10-25 03:00,3.68,0.39
2008-10-25 04:00,3.91,0.43
2008-10-25 05:00,3.39,0.46
2008-10-25 06:00,4.08,0.46
2008-10-25 07:00,4.25,0.47
2008-10-25 08:00,4.28,0.47
2008-10-25 09:00,4.22,0.47
2008-10-25 10:00,4.11,0.46
2008-10-25 11:00,4.02,0.46
2008-10-25 12:00,3.76,0.46
2008-10-25 13:00,3.93,0.47
2008-10-25 14:00,3.82,0.48
2008-10-25 15:00,2.99,0.46
2008-10-25 16:00,2.77,0.46
2008-10-25 17:00,2.91,0.47
2008-10-25 18:00,3.34,0.48
2008-10-25 19:00,2.97,0.48
2008-10-25 20:00,4.11,0.48
2008-10-25 21:00,3.71,0.48
2008-10-25 22:00,3.68,0.48
2008-10-25 23:00,3.68,0.48
2008-10-26 00:00,3.68,0.48
2008-10-26 01:00,3.68,0.48
2008-10-26 02:00,3.62,0.48
2008-10-26 03:00,3.51,0.48
2008-10-26 04:00,3.36,0.47
2008-10-26 05:00,3.14,0.46
2008-10-26 06:00,2.85,0.40
2008-10-26 07:00,2.48,0.34
2008-10-26 08:00,2.40,0.32
2008-10-26 09:00,2.45,0.33
2008-10-26 10:00,2.37,0.32
2008-10-26 11:00,2.31,0.32
2008-10-26 12:00,2.22,0.33
2008-10-26 13:00,2.28,0.32
2008-10-26 14:00,2.45,0.32
2008-10-26 15:00,2.22,0.34
2008-10-26 16:00,2.02,0.38
2008-10-26 17:00,,
2008-10-26 18:00,,
2008-10-26 19:00,,
2008-10-26 20:00,,
2008-10-26 21:00,3.45,0.38
2008-10-26 22:00,3.25,0.36
2008-10-26 23:00,3.28,0.34
2008-10-27 00:00,3.36,0.34
2008-10-27 01:00,3.25,0.33
2008-10-27 02:00,2.97,0.32
2008-10-27 03:00,2.74,0.32
2008-10-27 04:00,2.57,0.31
2008-10-27 05:00,2.85,0.32
2008-10-27 06:00,3.08,0.33
2008-10-27 07:00,3.11,0.33
2008-10-27 08:00,3.08,0.33
2008-10-27 09:00,3.05,0.33
2008-10-27 10:00,2.97,0.33
2008-10-27 11:00,2.91,0.32
2008-10-27 12:00,3.08,0.36
2008-10-27 13:00,2.65,0.36
2008-10-27 14:00,2.02,0.37
2008-10-27 15:00,1.60,0.38
2008-10-27 16:00,,
2008-10-27 17:00,,
2008-10-27 18:00,1.85,0.35
2008-10-27 19:00,2.25,0.35
2008-10-27 20:00,2.79,0.34
2008-10-27 21:00,2.82,0.33
2008-10-27 22:00,3.05,0.34
2008-10-27 23:00,3.11,0.33
2008-10-28 00:00,3.05,0.32
2008-10-28 01:00,3.02,0.33
2008-10-28 02:00,3.17,0.33
2008-10-28 03:00,3.14,0.33
2008-10-28 04:00,3.25,0.33
2008-10-28 05:00,3.28,0.32
2008-10-28 06:00,3.28,0.33
2008-10-28 07:00,3.45,0.34
2008-10-28 08:00,3.54,0.34
2008-10-28 09:00,3.45,0.34
2008-10-28 10:00,3.56,0.34
2008-10-28 11:00,3.42,0.34
2008-10-28 12:00,3.19,0.33
2008-10-28 13:00,3.19,0.33
2008-10-28 14:00,3.65,0.33
2008-10-28 15:00,3.99,0.33
2008-10-28 16:00,4.08,0.33
2008-10-28 17:00,3.88,0.32
2008-10-28 18:00,3.34,0.32
2008-10-28 19:00,2.65,0.32
2008-10-28 20:00,3.17,0.32
2008-10-28 21:00,3.05,0.32
2008-10-28 22:00,3.08,0.33
2008-10-28 23:00,3.17,0.33
2008-10-29 00:00,3.14,0.33
2008-10-29 01:00,3.14,0.33
2008-10-29 02:00,3.02,0.33
2008-10-29 03:00,2.94,0.34
2008-10-29 04:00,2.97,0.34
2008-10-29 05:00,2.74,0.34
2008-10-29 06:00,2.48,0.38
2008-10-29 07:00,2.31,0.41
2008-10-29 08:00,2.20,0.41
2008-10-29 09:00,2.25,0.41
2008-10-29 10:00,2.17,0.41
2008-10-29 11:00,2.14,0.40
2008-10-29 12:00,2.05,0.39
2008-10-29 13:00,1.82,0.38
2008-10-29 14:00,1.85,0.37
2008-10-29 15:00,1.63,0.37
2008-10-29 16:00,1.43,0.35
2008-10-29 17:00,1.94,0.35
2008-10-29 18:00,1.97,0.36
2008-10-29 19:00,1.88,0.36
2008-10-29 20:00,2.02,0.36
2008-10-29 21:00,2.11,0.37
2008-10-29 22:00,2.11,0.38
2008-10-29 23:00,2.08,0.38
2008-10-30 00:00,2.00,0.37
2008-10-30 01:00,2.00,0.36
2008-10-30 02:00,2.02,0.36
2008-10-30 03:00,1.94,0.35
2008-10-30 04:00,1.85,0.34
2008-10-30 05:00,1.85,0.34
2008-10-30 06:00,1.77,0.37
2008-10-30 07:00,1.23,0.57
2008-10-30 08:00,1.31,0.55
2008-10-30 09:00,1.40,0.55
2008-10-30 10:00,1.37,0.53
2008-10-30 11:00,1.40,0.53
2008-10-30 12:00,1.40,0.52
2008-10-30 13:00,1.20,0.62
2008-10-30 14:00,0.97,0.56
2008-10-30 15:00,0.97,0.57
2008-10-30 16:00,0.83,0.58
2008-10-30 17:00,0.83,0.58
2008-10-30 18:00,0.88,0.60
2008-10-30 19:00,1.06,0.56
2008-10-30 20:00,1.34,0.58
2008-10-30 21:00,1.57,0.70
2008-10-30 22:00,1.71,0.73
2008-10-30 23:00,1.71,0.66
2008-10-31 00:00,1.71,0.55
2008-10-31 01:00,2.05,0.60
2008-10-31 02:00,2.05,0.48
2008-10-31 03:00,2.11,0.44
2008-10-31 04:00,2.22,0.44
2008-10-31 05:00,2.17,0.46
2008-10-31 06:00,2.20,0.47
2008-10-31 07:00,1.97,0.57
2008-10-31 08:00,2.45,0.48
2008-10-31 09:00,2.62,0.44
2008-10-31 10:00,2.65,0.43
2008-10-31 11:00,2.74,0.43
2008-10-31 12:00,2.85,0.38
2008-10-31 13:00,2.68,0.38
2008-10-31 14:00,2.31,0.37
2008-10-31 15:00,2.14,0.38
2008-10-31 16:00,2.08,0.38
2008-10-31 17:00,2.11,0.39
2008-10-31 18:00,2.25,0.39
2008-10-31 19:00,2.62,0.39
2008-10-31 20:00,3.56,0.40
2008-10-31 21:00,3.74,0.40
2008-10-31 22:00,3.91,0.41
2008-10-31 23:00,3.68,0.38
2008-11-01 00:00,3.54,0.37
2008-11-01 01:00,3.28,0.36
2008-11-01 02:00,3.34,0.35
2008-11-01 03:00,3.25,0.35
2008-11-01 04:00,3.25,0.35
2008-11-01 05:00,3.59,0.38
2008-11-01 06:00,3.56,0.38
2008-11-01 07:00,3.51,0.38
2008-11-01 08:00,3.51,0.37
2008-11-01 09:00,3.19,0.31
2008-11-01 10:00,3.02,0.31
2008-11-01 11:00,3.36,0.35
2008-11-01 12:00,3.08,0.37
2008-11-01 13:00,3.22,0.39
2008-11-01 14:00,3.17,0.41
2008-11-01 15:00,2.48,0.43
2008-11-01 16:00,2.34,0.44
2008-11-01 17:00,3.19,0.46
2008-11-01 18:00,2.79,0.45
2008-11-01 19:00,3.39,0.44
2008-11-01 20:00,4.05,0.43
2008-11-01 21:00,3.51,0.38
2008-11-01 22:00,3.82,0.37
2008-11-01 23:00,4.16,0.34
2008-11-02 00:00,3.45,0.29
2008-11-02 01:00,2.88,0.26
2008-11-02 02:00,2.94,0.26
2008-11-02 03:00,3.11,0.27
2008-11-02 04:00,3.14,0.27
2008-11-02 05:00,3.08,0.27
2008-11-02 06:00,3.05,0.28
2008-11-02 07:00,2.97,0.28
2008-11-02 08:00,2.77,0.29
2008-11-02 09:00,2.97,0.30
2008-11-02 10:00,3.08,0.31
2008-11-02 11:00,3.19,0.30
2008-11-02 12:00,3.19,0.30
2008-11-02 13:00,2.82,0.32
2008-11-02 14:00,2.28,0.35
2008-11-02 15:00,2.22,0.40
2008-11-02 16:00,1.85,0.40
2008-11-02 17:00,1.80,0.40
2008-11-02 18:00,1.94,0.39
2008-11-02 19:00,2.25,0.37
2008-11-02 20:00,3.28,0.36
2008-11-02 21:00,3.56,0.36
2008-11-02 22:00,3.22,0.39
2008-11-02 23:00,3.39,0.36
2008-11-03 00:00,3.62,0.34
2008-11-03 01:00,3.74,0.31
2008-11-03 02:00,3.59,0.29
2008-11-03 03:00,3.25,0.28
2008-11-03 04:00,3.11,0.27
2008-11-03 05:00,3.11,0.27
2008-11-03 06:00,3.14,0.27
2008-11-03 07:00,3.31,0.28
2008-11-03 08:00,2.99,0.26
2008-11-03 09:00,2.65,0.26
2008-11-03 10:00,2.54,0.25
2008-11-03 11:00,2.51,0.25
2008-11-03 12:00,2.59,0.25
2008-11-03 13:00,2.42,0.26
2008-11-03 14:00,2.62,0.25
2008-11-03 15:00,2.57,0.25
2008-11-03 16:00,2.68,0.26
2008-11-03 17:00,2.88,0.26
2008-11-03 18:00,2.22,0.26
2008-11-03 19:00,2.99,0.25
2008-11-03 20:00,2.94,0.26
2008-11-03 21:00,2.97,0.25
2008-11-03 22:00,2.82,0.26
2008-11-03 23:00,3.48,0.28
2008-11-04 00:00,4.05,0.31
2008-11-04 01:00,3.88,0.32
2008-11-04 02:00,3.93,0.30
2008-11-04 03:00,3.88,0.31
2008-11-04 04:00,3.65,0.28
2008-11-04 05:00,3.54,0.27
2008-11-04 06:00,3.34,0.27
2008-11-04 07:00,3.28,0.27
2008-11-04 08:00,3.11,0.27
2008-11-04 09:00,2.74,0.25
2008-11-04 10:00,2.54,0.24
2008-11-04 11:00,2.59,0.24
2008-11-04 12:00,2.62,0.24
2008-11-04 13:00,2.37,0.24
2008-11-04 14:00,2.20,0.25
2008-11-04 15:00,2.05,0.25
2008-11-04 16:00,2.20,0.26
2008-11-04 17:00,2.17,0.26
2008-11-04 18:00,2.42,0.27
2008-11-04 19:00,2.97,0.28
2008-11-04 20:00,3.96,0.30
2008-11-04 21:00,4.08,0.31
2008-11-04 22:00,3.25,0.30
2008-11-04 23:00,3.65,0.30
2008-11-05 00:00,3.91,0.30
2008-11-05 01:00,4.42,0.30
2008-11-05 02:00,4.36,0.31
2008-11-05 03:00,4.02,0.28
2008-11-05 04:00,3.59,0.26
2008-11-05 05:00,4.28,0.28
2008-11-05 06:00,4.39,0.31
2008-11-05 07:00,4.45,0.29
2008-11-05 08:00,4.48,0.28
2008-11-05 09:00,4.45,0.27
2008-11-05 10:00,4.42,0.28
2008-11-05 11:00,4.62,0.28
2008-11-05 12:00,4.70,0.29
2008-11-05 13:00,5.08,0.30
2008-11-05 14:00,3.93,0.28
2008-11-05 15:00,4.82,0.29
2008-11-05 16:00,4.99,0.31
2008-11-05 17:00,5.28,0.31
2008-11-05 18:00,5.67,0.31
2008-11-05 19:00,5.87,0.31
2008-11-05 20:00,6.19,0.34
2008-11-05 21:00,6.53,0.34
2008-11-05 22:00,7.67,0.37
2008-11-05 23:00,7.58,0.38
2008-11-06 00:00,7.41,0.37
2008-11-06 01:00,6.02,0.30
2008-11-06 02:00,4.70,0.25
2008-11-06 03:00,4.02,0.24
2008-11-06 04:00,4.08,0.24
2008-11-06 05:00,3.88,0.24
2008-11-06 06:00,3.91,0.24
2008-11-06 07:00,3.62,0.24
2008-11-06 08:00,3.91,0.24
2008-11-06 09:00,3.48,0.24
2008-11-06 10:00,3.28,0.23
2008-11-06 11:00,3.02,0.23
2008-11-06 12:00,3.05,0.23
2008-11-06 13:00,2.99,0.24
2008-11-06 14:00,3.08,0.24
2008-11-06 15:00,3.88,0.25
2008-11-06 16:00,3.56,0.24
2008-11-06 17:00,3.59,0.24
2008-11-06 18:00,3.59,0.24
2008-11-06 19:00,3.56,0.24
2008-11-06 20:00,3.48,0.25
2008-11-06 21:00,3.51,0.24